{"data":{"norad_id":56494,"intl_designator":"2023-064AY","name":"STARLINK-5530","alt_names":[],"object_type":"PAYLOAD","status":"ACTIVE","operator":null,"country":"US","launch_date":"2023-05-10","launch_site_code":"AFWTR","launch_vehicle":null,"mission":null,"orbit_class":"UNKNOWN","rcs_meters":null,"size_class":null,"mass_kg":null,"dimensions":null,"purposes":["comms"],"wikipedia_slug":null,"has_3d_model":false,"image_url":null,"decayed_at":null,"tle_current":{"epoch":"2026-05-24T15:59:01.372704Z","epoch_age_seconds":114460,"freshness":"FRESH","line1":"1 56494U 23064AY  26144.66598811 -.00000159  00000+0 -55633-5 0  9997","line2":"2 56494  69.9991 272.8635 0003206 268.3388  91.7404 14.98330089167605","mean_motion":14.98330089,"eccentricity":0.0003206,"inclination_deg":69.9991,"raan_deg":272.8635,"arg_perigee_deg":268.3388,"mean_anomaly_deg":91.7404,"bstar":-5.5633e-6,"rev_number":16760,"period_min":96.106993416989,"perigee_km":569.82738396667,"apogee_km":574.28384747187,"semimajor_km":6950.1926157193,"source":"CELESTRAK","updated_at":"2026-05-25T13:38:18.076169Z"}}}